Location: Cicognara
(44.9500°N, 10.4667°E)
Time: 16:49:21
(UTC+00:00)

Cosmos 1892 Rocket - Visible Passes

Search period start: 24 October 2021 00:00
Search period end: 03 November 2021 00:00
Orbit: 607 x 632 km, 82.5° (Epoch: 23 October)

Date Brightness Start Highest point End Pass type
(mag) Time Alt. Az. Time Alt. Az. Time Alt. Az.
24 Oct 7.0 04:39:46 10° ESE 04:41:53 13° E 04:44:00 10° NE visible
24 Oct 6.4 18:00:11 10° NW 18:03:24 20° W 18:06:36 10° SW visible
25 Oct 6.4 04:55:34 10° SE 04:59:06 23° E 05:02:39 10° NE visible
25 Oct 7.2 18:19:20 10° WNW 18:20:35 11° W 18:21:49 10° W visible
26 Oct 5.2 05:12:12 10° SSE 05:16:24 41° E 05:20:37 10° NNE visible
26 Oct 4.2 16:56:28 10° NNW 17:00:51 61° W 17:05:10 10° S visible
27 Oct 5.6 17:14:15 10° NNW 17:18:14 33° W 17:22:09 10° SSW visible
28 Oct 6.9 04:11:37 10° ESE 04:13:57 14° E 04:16:19 10° NE visible
28 Oct 6.6 17:32:25 10° NW 17:35:30 19° W 17:38:32 10° SW visible
29 Oct 6.1 04:27:33 10° SE 04:31:11 25° E 04:34:50 10° NE visible
29 Oct 7.3 17:52:06 10° WNW 17:52:39 10° W 17:53:12 10° W visible
30 Oct 4.9 04:44:16 10° SSE 04:48:31 44° E 04:52:47 10° NNE visible
31 Oct 3.7 05:01:27 10° S 05:05:55 82° E 05:10:25 10° N visible
31 Oct 5.8 16:46:26 10° NNW 16:50:18 31° W 16:54:09 10° SSW visible
01 Nov 6.8 03:43:30 10° ESE 03:46:03 15° E 03:48:36 10° NE visible
01 Nov 3.7 05:19:03 10° SSW 05:23:26 54° WNW 05:27:51 10° N visible
01 Nov 6.6 17:04:39 10° NW 17:07:34 17° W 17:10:27 10° SW visible
02 Nov 5.9 03:59:34 10° SE 04:03:17 26° E 04:07:01 10° NNE visible
